Weather History for KLAR - August, 2013

Change the Weather History Date:

Wednesday, August 21, 2013

  Actual Average Record
Temperature  
Mean Temperature 68 °F 62 °F  
Max Temperature 82 °F 77 °F 89 °F (1960)
Min Temperature 53 °F 46 °F 34 °F (1974)
Degree Days  
Heating Degree Days 0 4  
Month to date heating degree days 45 54  
Since 1 June heating degree days 170 364  
Since 1 July heating degree days 67 123  
Cooling Degree Days 3 0  
Month to date cooling degree days 28 17  
Year to date cooling degree days 122 64  
Since 1 June cooling degree days 122 64  
Growing Degree Days 18 (Base 50)    
Moisture  
Dew Point 46 °F    
Average Humidity 49    
Maximum Humidity 72    
Minimum Humidity 26    
Precipitation  
Precipitation T in 0.03 in 0.74 in (1963)
Month to date precipitation 0.28 0.88  
Year to date precipitation 5.58 7.80  
Sea Level Pressure  
Sea Level Pressure 29.99 in    
Wind  
Wind Speed 8 mph (ESE)    
Max Wind Speed 22 mph    
Max Gust Speed 28 mph    
Visibility 10 miles    
Events Rain , Thunderstorm    
T = Trace of Precipitation, MM = Missing Value Source: NWS Daily Summary

Daily Weather History Graph

Daily Weather History Graph

Search for Another Location

Airport or City:

Trip Planner

Search our weather history database for the weather conditions in past years. The results will help you decide how hot, cold, wet, or windy it might be!

Date:

Astronomy

Aug. 21, 2013 Rise Set
Actual Time 6:18 AM MDT 7:52 PM MDT
Civil Twilight 5:49 AM MDT 8:21 PM MDT
Nautical Twilight 5:13 AM MDT 8:56 PM MDT
Astronomical Twilight 4:36 AM MDT 9:33 PM MDT
Moon 8:01 PM MDT (8/21) 7:02 AM MDT (8/21)
Length of Visible Light 14h 32m
Length of Day
13h 34m
Full, 99% of the Moon is Illuminated
Aug 21
Full
Aug 28
Last Quarter
Sep 5
New
Sep 12
First Quarter
Sep 19
Full

Hourly Weather History & Observations

Time (MDT) Temp. Dew Point Humidity Pressure Visibility Wind Dir Wind Speed Gust Speed Precip Events Conditions
12:53 AM 64.0 °F 43.0 °F 46% 29.88 in 10.0 mi ESE 3.5 mph - N/A   Overcast
1:53 AM 62.1 °F 44.1 °F 52% 29.88 in 10.0 mi Calm Calm - N/A   Overcast
2:53 AM 63.0 °F 45.0 °F 52% 29.89 in 10.0 mi NE 6.9 mph - N/A   Overcast
3:53 AM 62.1 °F 44.1 °F 52% 29.90 in 10.0 mi ENE 9.2 mph - N/A   Overcast
4:53 AM 61.0 °F 46.0 °F 58% 29.92 in 10.0 mi ENE 4.6 mph - 0.00 in   Overcast
5:53 AM 57.9 °F 45.0 °F 62% 29.95 in 10.0 mi South 4.6 mph - N/A   Scattered Clouds
6:53 AM 59.0 °F 46.0 °F 62% 29.96 in 10.0 mi ESE 3.5 mph - N/A   Clear
7:53 AM 62.1 °F 46.9 °F 58% 29.98 in 10.0 mi WSW 4.6 mph - N/A   Clear
8:53 AM 69.1 °F 44.1 °F 40% 29.95 in 10.0 mi WSW 3.5 mph - N/A   Partly Cloudy
9:53 AM 73.0 °F 44.1 °F 35% 29.94 in 10.0 mi Variable 6.9 mph - N/A   Clear
10:53 AM 75.0 °F 44.1 °F 33% 29.94 in 10.0 mi Variable 6.9 mph - N/A   Clear
11:53 AM 78.1 °F 44.1 °F 30% 29.94 in 10.0 mi NW 11.5 mph 20.7 mph N/A   Mostly Cloudy
12:53 PM 77.0 °F 44.1 °F 31% 29.94 in 10.0 mi West 9.2 mph - N/A   Mostly Cloudy
1:53 PM 77.0 °F 39.9 °F 26% 29.93 in 10.0 mi WSW 4.6 mph - N/A   Partly Cloudy
2:48 PM 78.8 °F 42.8 °F 28% 30.27 in 10.0 mi Variable 4.6 mph - N/A Thunderstorm Scattered Clouds
2:53 PM 78.1 °F 43.0 °F 29% 29.90 in 10.0 mi Calm Calm - N/A Thunderstorm Mostly Cloudy
3:03 PM 77.0 °F 42.8 °F 29% 30.27 in 10.0 mi Variable 3.5 mph - N/A   Mostly Cloudy
3:15 PM 71.6 °F 46.4 °F 41% 30.27 in 10.0 mi North 16.1 mph 27.6 mph 0.00 in Rain , Thunderstorm Light Thunderstorms and Rain
3:51 PM 75.2 °F 44.6 °F 34% 30.27 in 10.0 mi ESE 9.2 mph - 0.00 in   Overcast
3:53 PM 75.9 °F 44.1 °F 32% 29.92 in 10.0 mi East 10.4 mph - 0.00 in   Overcast
4:53 PM 75.0 °F 46.9 °F 37% 29.91 in 10.0 mi ESE 9.2 mph - 0.00 in   Clear
5:53 PM 75.9 °F 48.9 °F 38% 29.91 in 10.0 mi ESE 11.5 mph - N/A   Clear
6:53 PM 73.0 °F 48.0 °F 41% 29.92 in 10.0 mi SE 12.7 mph - N/A   Partly Cloudy
7:53 PM 68.0 °F 50.0 °F 52% 29.95 in 10.0 mi East 18.4 mph - N/A   Mostly Cloudy
8:40 PM 62.6 °F 51.8 °F 68% 30.29 in 10.0 mi East 9.2 mph - N/A Thunderstorm Scattered Clouds
8:53 PM 63.0 °F 51.1 °F 65% 29.97 in 10.0 mi East 10.4 mph - N/A   Mostly Cloudy
9:53 PM 61.0 °F 50.0 °F 67% 29.99 in 10.0 mi ENE 12.7 mph - N/A   Scattered Clouds
10:53 PM 59.0 °F 48.9 °F 69% 30.00 in 10.0 mi East 8.1 mph - N/A   Clear
11:53 PM 57.9 °F 48.0 °F 70% 29.99 in 10.0 mi SE 4.6 mph - N/A   Clear